Location: Bethnal Green
(51.5167°N, 0.0500°W)
Time: 19:37:04
(UTC+00:00)

Daily predictions for brighter satellites

Satellite Brightness Start Highest point End
(mag) Time Altitude Azimuth Time Altitude Azimuth Time Altitude Azimuth
Cosmos 2084 Rocket 3.4 16:35:01 10° SW 16:39:10 72° SE 16:43:22 10° NE
SMAP 3.4 16:38:30 10° SE 16:42:56 46° ENE 16:47:24 10° N
Cosmos 540 Rocket 3.8 16:38:24 10° NNW 16:43:21 45° ENE 16:48:14 10° SE
Cosmos 2297 Rocket 4.4 16:45:26 10° NNW 16:46:35 11° N 16:47:44 10° N
Cosmos 1869 4.3 16:45:28 10° SE 16:48:09 21° E 16:50:51 10° NE
SWARM A 4.2 16:44:54 10° N 16:48:14 82° E 16:51:33 10° S
YAOGAN 1 4.1 16:47:27 10° E 16:49:49 15° ENE 16:52:11 10° NNE
IGS 5A 3.3 16:46:01 10° SSE 16:49:58 71° ENE 16:53:57 10° N
Cosmos 1763 Rocket 3.5 16:46:41 10° NNW 16:51:52 59° ENE 16:56:57 10° SE
SL-16 R/B 2.6 16:46:12 10° NNE 16:52:31 76° ESE 16:58:45 10° SSW
SAR-Lupe-5 4.5 16:51:58 10° NNE 16:54:32 50° ESE 16:57:07 10° S
Landsat 7 4.1 16:50:42 10° SE 16:55:05 43° ENE 16:59:31 10° N
Cosmos 1340 Rocket 4.4 16:52:38 10° SW 16:56:10 34° WNW 16:59:43 10° N
Timation 1 Rocket 4.3 16:51:27 10° NNW 16:57:25 67° NE 17:03:21 10° SE
RESURS DK-1 2.3 16:53:34 10° NNW 16:57:33 63° NE 17:01:32 10° SE
Cosmos 1140 Rocket 3.5 16:54:36 10° SSW 16:59:43 67° ESE 17:04:50 10° NNE
CZ-4C R/B 2.9 16:56:04 10° W 17:00:33 41° NNW 17:06:18 10° NE
Aureole 3 Rocket 3.8 16:59:08 10° SE 17:01:15 17° E 17:03:30 10° NE
UNK 3.9 17:00:54 10° NNE 17:05:27 53° E 17:09:57 10° S
Meteor 1-28 Rocket 2.8 17:02:15 10° NNE 17:05:39 87° ESE 17:09:00 10° SSW
Meteor 2-12 Rocket 4.5 17:02:22 10° N 17:08:25 61° ENE 17:14:25 10° SSE
Cosmos 1400 Rocket 4.4 17:08:39 10° ESE 17:10:42 14° E 17:11:08 14° ENE
Cosmos 1536 Rocket 4.5 17:07:13 10° N 17:11:01 27° ENE 17:14:46 10° SE
SJ-12 3.8 17:07:41 10° SSE 17:11:23 55° ENE 17:15:07 10° N
Okean 2 Rocket 4.4 17:15:03 10° SE 17:18:06 19° E 17:20:03 14° NE
Cosmos 1269 Rocket 4.1 17:14:04 10° SSW 17:19:20 80° WNW 17:24:39 10° NNE
CORIOLIS 4.3 17:15:42 10° SSE 17:21:04 82° WSW 17:26:27 10° NNW
IRS-1C 4.1 17:17:14 10° SSE 17:22:33 83° ENE 17:27:55 10° NNW
ATLAS CENTAUR R/B 3.0 17:22:14 10° WNW 17:24:48 19° NNW 17:27:22 10° NNE
SL-12 R/B(2) 4.5 17:18:33 10° SSW 17:26:23 61° ESE 17:35:47 11° NE
COSMO-SKYMED 1 3.8 17:26:49 18° E 17:27:15 18° E 17:30:09 10° SE
Resurs 01 Rocket 3.3 17:30:11 16° NE 17:30:11 16° NE 17:32:15 10° NNE
Thor Agena Rocket 4.4 17:24:39 10° S 17:29:49 56° WSW 17:35:01 10° NNW
Cosmos 1943 Rocket 2.3 17:24:41 10° S 17:30:09 55° ESE 17:35:17 12° NE
Cosmos 1782 Rocket 4.1 17:26:55 10° SSW 17:31:17 61° WNW 17:35:42 10° N
Timation 2 Rocket 4.2 17:24:43 10° SSW 17:31:29 63° ESE 17:38:13 10° NE
Cosmos 841 Rocket 3.9 17:27:34 10° NNW 17:32:32 40° NE 17:37:27 10° SE
Cosmos 2058 2.9 17:29:17 10° N 17:33:11 51° ENE 17:37:04 10° SSE
Cosmos 2233 Rocket 4.3 17:26:55 10° SSW 17:33:13 74° WNW 17:39:35 10° N
Cosmos 1300 Rocket 4.4 17:29:28 10° SSW 17:33:45 52° WNW 17:38:03 10° N
Cosmos 2251 Rocket 4.0 17:29:24 10° S 17:34:20 41° ESE 17:38:36 14° NE
Cosmos 2227 Rocket 4.5 17:34:21 10° NNW 17:35:15 10° N 17:36:08 10° N
BREEZE-M DEB (TANK) 2.9 17:34:34 10° SW 17:37:00 41° SSE 17:39:49 20° E
Cosmos 2082 Rocket 2.1 17:32:07 10° NNW 17:37:46 77° ENE 17:43:22 10° SE
ATLAS 2AS CENTAUR R/B 3.2 17:31:41 10° NW 17:38:04 40° NNE 17:42:14 20° E
Cosmos 1346 Rocket 4.0 17:36:38 10° NNE 17:38:39 20° NE 17:38:39 20° NE
Cosmos 2061 Rocket 4.3 17:34:39 10° SSW 17:40:56 72° WNW 17:47:11 10° N
Cosmos 2278 Rocket 2.2 17:38:01 10° SSW 17:43:37 66° ESE 17:48:32 14° NE
IRAS Rocket 4.3 17:38:50 10° SE 17:44:12 53° ENE 17:49:34 10° N
Cosmos 1602 2.9 17:41:26 10° N 17:44:30 71° ENE 17:47:33 10° SSE
MOS 1 Rocket 3.0 17:41:54 10° SSE 17:46:14 76° ENE 17:50:49 10° N
Cosmos 1975 Rocket 4.3 17:42:51 10° NNW 17:47:00 45° W 17:51:10 10° SSW
Cosmos 468 Rocket 3.9 17:41:46 10° NNW 17:47:01 87° ENE 17:52:10 10° SSE
AQUARIUS 4.3 17:45:07 10° S 17:49:31 77° WSW 17:53:58 10° NNW
Cosmos 1464 Rocket 4.1 17:44:31 10° SSE 17:50:34 53° E 17:56:35 10° NNE
ARIANE 5 R/B 3.1 17:46:23 10° S 17:51:17 58° WSW 17:56:15 10° NNW
CZ-2D R/B 3.4 17:47:56 10° SSE 17:52:02 61° ENE 17:56:12 10° N
Cosmos 1862 2.9 17:52:00 10° N 17:55:38 65° ENE 17:59:14 10° SSE
USA 215 4.1 17:49:35 10° SE 17:55:55 51° SW 18:02:16 10° WNW
PSLV R/B 3.5 17:53:56 10° SE 17:57:50 50° ENE 18:01:45 10° N
ARIANE 6 FM1 Upper Stage 4.4 17:55:55 10° NW 17:58:45 18° N 17:59:56 16° NNE
Geosat FO 4.1 17:57:43 16° SSE 17:59:55 73° WSW 18:02:48 10° NW
Cosmos 2151 Rocket 3.6 17:56:40 10° S 18:01:04 57° E 18:05:04 12° NNE
Cosmos 2263 Rocket 4.5 18:00:21 10° NNW 18:01:16 10° N 18:02:10 10° N
Cosmos 1190 Rocket 4.0 17:56:53 10° S 18:02:03 58° ESE 18:05:26 22° NE
ISS -3.7 18:00:04 10° WSW 18:03:22 62° SSE 18:03:52 53° ESE
Cosmos 2034 Rocket 4.2 17:58:42 10° SSE 18:04:34 46° E 18:10:30 10° NNE
Cosmos 1812 2.2 18:02:21 10° SSW 18:05:14 69° W 18:06:21 33° N
Cosmos 676 Rocket 4.4 18:00:20 10° S 18:05:14 40° ESE 18:06:43 33° ENE
SKYMED 2 3.5 18:03:51 18° NNE 18:07:04 61° ESE 18:11:21 10° S
Okean 1 Rocket 3.3 18:03:36 10° SSE 18:07:46 43° E 18:08:25 40° ENE
Cosmos 1656 Rocket 4.4 18:03:07 10° SSE 18:07:54 30° ESE 18:07:59 30° ESE
Cosmos 220 Rocket 4.1 18:07:21 10° NNW 18:11:16 45° NE 18:11:16 45° NE
Cosmos 407 Rocket 3.8 18:07:20 10° SW 18:12:28 63° WNW 18:17:08 13° NNE
COSMOS 2406 3.1 18:07:43 10° NNW 18:13:27 79° ENE 18:19:02 11° SSE
Sich 1 Rocket 3.7 18:09:06 10° S 18:13:30 51° E 18:14:56 36° NE
USA 281 3.6 18:11:29 30° E 18:13:49 40° NE 18:19:52 10° NNW
Cosmos 1954 Rocket 4.0 18:09:18 10° S 18:14:28 60° ESE 18:16:53 31° NE
Cosmos 1092 Rocket 4.1 18:09:28 10° N 18:15:32 49° ENE 18:21:30 10° SSE
BlueWalker 3 4.4 18:15:34 10° SSE 18:15:40 10° SSE 18:15:40 10° SSE
SL-19 R/B 4.0 18:14:10 10° SSE 18:19:22 83° ENE 18:24:39 10° NNW
Cosmos 2026 Rocket 3.9 18:14:35 10° N 18:20:36 58° ENE 18:26:39 10° SSE
SJ 16-02 1.1 18:19:23 10° SSW 18:23:40 72° ESE 18:24:29 55° NE
Cosmos 1072 Rocket 4.4 18:18:08 10° S 18:24:16 88° W 18:30:25 10° N
Cosmos 44 Rocket 3.3 18:19:31 10° SW 18:24:20 80° NW 18:26:14 38° NE
YAOGAN 1 2.5 18:20:49 10° SSE 18:25:05 86° WSW 18:29:23 10° NNW
SPOT 1/Viking Rocket 3.9 18:21:43 10° S 18:26:52 68° WSW 18:32:05 10° NNW
Cosmos 2344 3.8 18:23:30 10° NW 18:31:15 81° NE 18:38:34 21° SE
Cosmos 2297 Rocket 4.2 18:30:32 10° N 18:33:09 14° NNE 18:33:09 14° NNE
SL-16 R/B 4.4 18:30:26 10° N 18:35:32 27° NW 18:40:37 10° WSW
Meteor 2-3 Rocket 3.6 18:30:49 10° NNW 18:36:34 82° ENE 18:42:13 10° SSE
Spot 4 Rocket 4.4 18:32:33 10° S 18:37:37 64° WSW 18:42:42 10° NNW
Resurs 1-3 3.8 18:35:21 10° S 18:39:37 67° W 18:43:56 10° NNW
Nadezhda 4 Rocket 4.4 18:36:44 10° NNW 18:42:56 63° W 18:49:04 10° S
Cosmos 1400 Rocket 3.1 18:41:56 10° SSW 18:45:41 59° WNW 18:45:47 58° WNW
Cosmos 304 Rocket 3.6 18:43:45 10° SSW 18:48:29 88° WNW 18:48:47 79° NNE
Cosmos 371 Rocket 3.1 18:45:31 10° SSW 18:50:20 89° WNW 18:50:35 81° NNE
CZ-4C R/B 3.7 18:45:41 10° WNW 18:50:21 27° N 18:51:49 25° NNE
Cosmos 1627 Rocket 4.4 18:47:14 10° N 18:53:24 90° W 18:59:35 10° S
Okean 2 Rocket 3.7 18:51:20 10° SSW 18:55:38 55° WNW 18:57:21 33° NNW
COSMO-SKYMED 1 3.1 19:03:10 53° W 19:03:10 53° W 19:06:55 10° SSW
Resurs 01 Rocket 3.1 19:07:36 29° NNW 19:07:36 29° NNW 19:09:49 10° NNW
Geosat 4.2 19:05:27 55° SSW 19:06:20 65° WSW 19:11:20 10° NW
BREEZE-M DEB (TANK) 3.8 19:08:21 10° WSW 19:11:47 71° S 19:11:47 71° S
Cosmos 1943 Rocket 3.5 19:09:04 10° WSW 19:14:09 34° NW 19:16:48 23° N
Cosmos 2227 Rocket 4.4 19:19:09 10° N 19:20:29 13° N 19:20:29 13° N
Cosmos 2278 Rocket 3.7 19:23:09 10° WSW 19:28:08 31° NW 19:30:23 23° N
ATLAS 2AS CENTAUR R/B 2.5 19:22:47 10° NW 19:29:35 82° SW 19:29:41 82° SSW
Cosmos 1634 Rocket 4.4 19:29:56 10° SSW 19:42:27 10° N 19:42:28 10° N
Cosmos 2369 Rocket 4.3 19:31:05 10° SSW 19:31:59 15° SSW 19:31:59 15° SSW
ISS -0.1 19:36:46 10° W 19:36:47 10° W 19:36:47 10° W
USA 281 3.6 19:58:21 59° WSW 19:58:21 59° WSW 20:04:38 10° NNW
SJ 16-02 4.0 19:59:15 10° W 20:01:03 17° WNW 20:01:03 17° WNW
CZ-4C R/B 4.4 20:34:32 10° NW 20:36:46 22° NNW 20:36:46 22° NNW
